Weather History for Idabel, OK

Change the Weather History Date:

Friday, February 22, 2013

  Actual Average (KDEQ) Record (KDEQ)
Temperature  
Mean Temperature 40 °F 47 °F  
Max Temperature 51 °F 60 °F 88 °F (1996)
Min Temperature 30 °F 34 °F 14 °F (1963)
Degree Days  
Heating Degree Days 24 18  
Month to date heating degree days 454  
Since 1 July heating degree days 2390  
Cooling Degree Days 0 0  
Month to date cooling degree days 0  
Year to date cooling degree days 1  
Moisture  
Dew Point 29 °F    
Average Humidity 71    
Maximum Humidity 100    
Minimum Humidity 38    
Precipitation  
Precipitation 0.00 in 0.11 in 1.45 in (1994)
Month to date precipitation 3.08  
Year to date precipitation 6.40  
Snow  
Snow 0.00 in - - ()
Month to date snowfall  
Since 1 July snowfall  
Snow Depth -    
Sea Level Pressure  
Sea Level Pressure 30.05 in    
Wind  
Wind Speed 6 mph (NW)    
Max Wind Speed 12 mph    
Max Gust Speed 16 mph    
Visibility 10 miles    
Events      
T = Trace of Precipitation, MM = Missing Value Source: NWS Daily Summary

Daily Weather History Graph

Daily Weather History Graph

Search for Another Location

Airport:

Trip Planner

Search our weather history database for the weather conditions in past years. The results will help you decide how hot, cold, wet, or windy it might be!

Date:

Astronomy

Feb. 22, 2013 Rise Set
Actual Time 6:56 AM CST 6:10 PM CST
Civil Twilight 6:30 AM CST 6:35 PM CST
Nautical Twilight 6:01 AM CST 7:04 PM CST
Astronomical Twilight 5:32 AM CST 7:33 PM CST
Moon 3:27 PM CST (2/22) 4:36 AM CST (2/22)
Length of Visible Light 12h 04m
Length of Day
11h 14m
Waxing Gibbous, 90% of the Moon is Illuminated
Feb 22
Waxing Gibbous
Feb 25
Full
Mar 4
Last Quarter
Mar 11
New
Mar 19
First Quarter

Hourly Weather History & Observations

Time (CST) Temp. Windchill Dew Point Humidity Pressure Visibility Wind Dir Wind Speed Gust Speed Precip Events Conditions
12:15 AM 37.4 °F 32.8 °F 35.6 °F 93% 29.93 in 0.5 mi NNW 5.8 mph - N/A   Overcast
12:35 AM 37.4 °F 33.8 °F 37.4 °F 100% 29.93 in 1.0 mi WNW 4.6 mph - N/A   Overcast
12:55 AM 37.4 °F 31.4 °F 37.4 °F 100% 29.93 in 3.0 mi NW 8.1 mph - N/A   Overcast
1:15 AM 37.4 °F 34.9 °F 35.6 °F 93% 29.94 in 7.0 mi WNW 3.5 mph - N/A   Overcast
1:35 AM 37.4 °F 32.1 °F 35.6 °F 93% 29.95 in 10.0 mi NNW 6.9 mph - N/A   Overcast
1:55 AM 37.4 °F 34.9 °F 35.6 °F 93% 29.96 in 7.0 mi West 3.5 mph - N/A   Overcast
2:15 AM 37.4 °F 33.8 °F 35.6 °F 93% 29.95 in 7.0 mi NW 4.6 mph - N/A   Overcast
2:35 AM 37.4 °F 30.8 °F 35.6 °F 93% 29.92 in 7.0 mi North 9.2 mph - N/A   Overcast
2:55 AM 37.4 °F 32.1 °F 35.6 °F 93% 29.94 in 10.0 mi NW 6.9 mph - N/A   Mostly Cloudy
3:15 AM 35.6 °F 31.7 °F 33.8 °F 93% 29.96 in 10.0 mi WNW 4.6 mph - N/A   Mostly Cloudy
3:35 AM 35.6 °F 32.8 °F 33.8 °F 93% 29.98 in 10.0 mi West 3.5 mph - N/A   Scattered Clouds
3:55 AM 33.8 °F 27.7 °F 33.8 °F 100% 29.99 in 10.0 mi NW 6.9 mph - N/A   Clear
4:15 AM 33.8 °F 27.7 °F 32.0 °F 93% 29.99 in 10.0 mi NNW 6.9 mph - N/A   Clear
4:35 AM 33.8 °F 29.6 °F 32.0 °F 93% 29.99 in 10.0 mi NW 4.6 mph - N/A   Clear
4:55 AM 32.0 °F 24.8 °F 32.0 °F 100% 30.00 in 10.0 mi NNW 8.1 mph - N/A   Clear
5:15 AM 32.0 °F 25.6 °F 32.0 °F 100% 30.00 in 10.0 mi NW 6.9 mph - N/A   Clear
5:35 AM 32.0 °F 24.2 °F 32.0 °F 100% 30.00 in 10.0 mi NNW 9.2 mph - N/A   Clear
6:15 AM 32.0 °F 27.5 °F 30.2 °F 93% 30.06 in 10.0 mi West 4.6 mph - N/A   Clear
6:35 AM 32.0 °F - 30.2 °F 93% 30.07 in 10.0 mi Calm Calm - N/A   Clear
6:55 AM 30.2 °F 24.3 °F 28.4 °F 93% 30.08 in 10.0 mi WNW 5.8 mph - N/A   Clear
7:15 AM 30.2 °F 21.3 °F 30.2 °F 100% 30.08 in 10.0 mi NW 10.4 mph - N/A   Clear
7:35 AM 30.2 °F 23.4 °F 28.4 °F 93% 30.10 in 10.0 mi WNW 6.9 mph - N/A   Clear
7:55 AM 32.0 °F 24.8 °F 30.2 °F 93% 30.10 in 10.0 mi NW 8.1 mph - N/A   Clear
8:15 AM 32.0 °F 23.6 °F 28.4 °F 87% 30.11 in 10.0 mi NW 10.4 mph - N/A   Clear
8:35 AM 32.0 °F 23.6 °F 28.4 °F 87% 30.11 in 10.0 mi NW 10.4 mph - N/A   Clear
8:55 AM 33.8 °F 27.7 °F 26.6 °F 75% 30.12 in 10.0 mi WNW 6.9 mph - N/A   Clear
9:15 AM 35.6 °F - 24.8 °F 65% 30.14 in 10.0 mi Calm Calm - N/A   Clear
9:35 AM 35.6 °F 31.7 °F 24.8 °F 65% 30.13 in 10.0 mi NW 4.6 mph - N/A   Clear
9:55 AM 37.4 °F 34.9 °F 24.8 °F 60% 30.13 in 10.0 mi NW 3.5 mph - N/A   Clear
10:15 AM 37.4 °F 32.8 °F 24.8 °F 60% 30.12 in 10.0 mi WNW 5.8 mph - N/A   Clear
10:35 AM 39.2 °F 34.2 °F 26.6 °F 61% 30.12 in 10.0 mi West 6.9 mph - N/A   Clear
10:55 AM 41.0 °F 37.1 °F 28.4 °F 61% 30.13 in 10.0 mi West 5.8 mph - N/A   Clear
11:15 AM 41.0 °F 35.8 °F 26.6 °F 57% 30.12 in 10.0 mi NW 8.1 mph - N/A   Clear
11:35 AM 41.0 °F 38.0 °F 26.6 °F 57% 30.12 in 10.0 mi NW 4.6 mph - N/A   Clear
11:55 AM 42.8 °F 38.0 °F 28.4 °F 57% 30.11 in 10.0 mi NW 8.1 mph - N/A   Clear
12:15 PM 42.8 °F 37.0 °F 28.4 °F 57% 30.10 in 10.0 mi NW 10.4 mph - N/A   Clear
12:35 PM 42.8 °F 38.0 °F 28.4 °F 57% 30.08 in 10.0 mi NNW 8.1 mph - N/A   Clear
12:55 PM 44.6 °F 38.8 °F 30.2 °F 57% 30.07 in 10.0 mi NNW 11.5 mph - N/A   Clear
1:15 PM 46.4 °F 42.4 °F 30.2 °F 53% 30.06 in 10.0 mi NNW 8.1 mph - N/A   Clear
1:35 PM 46.4 °F 43.5 °F 28.4 °F 50% 30.06 in 10.0 mi NW 5.8 mph 16.1 mph N/A   Clear
1:55 PM 46.4 °F 42.9 °F 26.6 °F 46% 30.04 in 10.0 mi NW 6.9 mph - N/A   Clear
2:15 PM 48.2 °F - 28.4 °F 46% 30.04 in 10.0 mi NNW 8.1 mph - N/A   Clear
2:35 PM 46.4 °F 41.9 °F 28.4 °F 50% 30.03 in 10.0 mi NW 9.2 mph - N/A   Clear
2:55 PM 46.4 °F 43.5 °F 28.4 °F 50% 30.03 in 10.0 mi NNW 5.8 mph - N/A   Clear
3:15 PM 50.0 °F - 28.4 °F 43% 30.02 in 10.0 mi NW 6.9 mph - N/A   Clear
3:35 PM 50.0 °F - 28.4 °F 43% 30.01 in 10.0 mi NW 10.4 mph - N/A   Clear
3:55 PM 51.8 °F - 26.6 °F 38% 30.01 in 10.0 mi North 8.1 mph - N/A   Clear
4:15 PM 51.8 °F - 26.6 °F 38% 30.00 in 10.0 mi North 10.4 mph - N/A   Clear
4:35 PM 50.0 °F - 26.6 °F 40% 30.01 in 10.0 mi North 6.9 mph - N/A   Clear
4:55 PM 48.2 °F - 26.6 °F 43% 30.01 in 10.0 mi NNW 5.8 mph - N/A   Clear
5:15 PM 46.4 °F 43.5 °F 26.6 °F 46% 30.01 in 10.0 mi North 5.8 mph - N/A   Clear
5:35 PM 46.4 °F 44.3 °F 28.4 °F 50% 30.02 in 10.0 mi NNW 4.6 mph - N/A   Clear
5:55 PM 46.4 °F 41.5 °F 28.4 °F 50% 30.02 in 10.0 mi North 10.4 mph - N/A   Clear
6:15 PM 44.6 °F 41.4 °F 28.4 °F 53% 30.03 in 10.0 mi North 5.8 mph - N/A   Clear
6:35 PM 42.8 °F 40.1 °F 28.4 °F 57% 30.04 in 10.0 mi North 4.6 mph - N/A   Clear
6:55 PM 41.0 °F 38.0 °F 28.4 °F 61% 30.05 in 10.0 mi North 4.6 mph - N/A   Clear
7:15 PM 41.0 °F 36.4 °F 28.4 °F 61% 30.05 in 10.0 mi North 6.9 mph - N/A   Clear
7:35 PM 41.0 °F 35.2 °F 28.4 °F 61% 30.06 in 10.0 mi North 9.2 mph - N/A   Clear
7:55 PM 41.0 °F 36.4 °F 26.6 °F 57% 30.08 in 10.0 mi NNW 6.9 mph - N/A   Clear
8:15 PM 39.2 °F 34.2 °F 26.6 °F 61% 30.09 in 10.0 mi North 6.9 mph - N/A   Clear
8:35 PM 37.4 °F 31.4 °F 26.6 °F 65% 30.09 in 10.0 mi North 8.1 mph - N/A   Clear
8:55 PM 37.4 °F 31.4 °F 26.6 °F 65% 30.09 in 10.0 mi NNW 8.1 mph - N/A   Clear
9:15 PM 37.4 °F 32.1 °F 26.6 °F 65% 30.10 in 10.0 mi NNW 6.9 mph - N/A   Clear
9:35 PM 35.6 °F 31.7 °F 26.6 °F 70% 30.11 in 10.0 mi NNW 4.6 mph - N/A   Clear
9:55 PM 35.6 °F 31.7 °F 26.6 °F 70% 30.11 in 10.0 mi North 4.6 mph - N/A   Clear
10:15 PM 33.8 °F 29.6 °F 24.8 °F 70% 30.10 in 10.0 mi North 4.6 mph - N/A   Clear
10:35 PM 33.8 °F 29.6 °F 26.6 °F 75% 30.10 in 10.0 mi North 4.6 mph - N/A   Clear
10:55 PM 33.8 °F 28.6 °F 26.6 °F 75% 30.09 in 10.0 mi North 5.8 mph - N/A   Clear
11:15 PM 32.0 °F 26.4 °F 24.8 °F 75% 30.09 in 10.0 mi NNW 5.8 mph - N/A   Clear
11:35 PM 32.0 °F 27.5 °F 24.8 °F 75% 30.09 in 10.0 mi NNW 4.6 mph - N/A   Clear
11:55 PM 32.0 °F 25.6 °F 24.8 °F 75% 30.09 in 10.0 mi NNW 6.9 mph - N/A   Clear